﻿測定場所 (Monitoring sites),日付 (Measurement date),時間 (Measurement time),線量率 最大値 (max) μGy/h,線量率 最小値 (min) μGy/h,線量率 平均値 (average) μGy/h,
江戸川 (Edogawa),2017-10-22,23:01～24:00,0.0521,0.0457,0.0495,
江戸川 (Edogawa),2017-10-22,22:01～23:00,0.0543,0.0456,0.0511,
江戸川 (Edogawa),2017-10-22,21:01～22:00,0.0554,0.0483,0.0514,
江戸川 (Edogawa),2017-10-22,20:01～21:00,0.0567,0.0488,0.0530,
江戸川 (Edogawa),2017-10-22,19:01～20:00,0.0598,0.0509,0.0557,
江戸川 (Edogawa),2017-10-22,18:01～19:00,0.0604,0.0519,0.0553,
江戸川 (Edogawa),2017-10-22,17:01～18:00,0.0571,0.0500,0.0536,
江戸川 (Edogawa),2017-10-22,16:01～17:00,0.0550,0.0490,0.0519,
江戸川 (Edogawa),2017-10-22,15:01～16:00,0.0539,0.0452,0.0499,
江戸川 (Edogawa),2017-10-22,14:01～15:00,0.0513,0.0430,0.0482,
江戸川 (Edogawa),2017-10-22,13:01～14:00,0.0517,0.0454,0.0482,
江戸川 (Edogawa),2017-10-22,12:01～13:00,0.0522,0.0458,0.0489,
江戸川 (Edogawa),2017-10-22,11:01～12:00,0.0529,0.0458,0.0500,
江戸川 (Edogawa),2017-10-22,10:01～11:00,0.0560,0.0466,0.0523,
江戸川 (Edogawa),2017-10-22,09:01～10:00,0.0603,0.0504,0.0548,
江戸川 (Edogawa),2017-10-22,08:01～09:00,0.0602,0.0530,0.0565,
江戸川 (Edogawa),2017-10-22,07:01～08:00,0.0604,0.0514,0.0548,
江戸川 (Edogawa),2017-10-22,06:01～07:00,0.0567,0.0491,0.0536,
江戸川 (Edogawa),2017-10-22,05:01～06:00,0.0558,0.0501,0.0531,
江戸川 (Edogawa),2017-10-22,04:01～05:00,0.0568,0.0502,0.0529,
江戸川 (Edogawa),2017-10-22,03:01～04:00,0.0561,0.0490,0.0524,
江戸川 (Edogawa),2017-10-22,02:01～03:00,0.0566,0.0504,0.0530,
江戸川 (Edogawa),2017-10-22,01:01～02:00,0.0558,0.0494,0.0524,
江戸川 (Edogawa),2017-10-22,00:01～01:00,0.0547,0.0476,0.0512,
江戸川 (Edogawa),2017-10-21,23:01～24:00,0.0537,0.0469,0.0505,
江戸川 (Edogawa),2017-10-21,22:01～23:00,0.0535,0.0443,0.0503,
江戸川 (Edogawa),2017-10-21,21:01～22:00,0.0557,0.0477,0.0510,
江戸川 (Edogawa),2017-10-21,20:01～21:00,0.0542,0.0476,0.0510,
江戸川 (Edogawa),2017-10-21,19:01～20:00,0.0564,0.0482,0.0515,
江戸川 (Edogawa),2017-10-21,18:01～19:00,0.0535,0.0479,0.0509,
江戸川 (Edogawa),2017-10-21,17:01～18:00,0.0564,0.0491,0.0528,
江戸川 (Edogawa),2017-10-21,16:01～17:00,0.0578,0.0515,0.0541,
江戸川 (Edogawa),2017-10-21,15:01～16:00,0.0610,0.0526,0.0565,
江戸川 (Edogawa),2017-10-21,14:01～15:00,0.0604,0.0525,0.0567,
江戸川 (Edogawa),2017-10-21,13:01～14:00,0.0607,0.0536,0.0567,
江戸川 (Edogawa),2017-10-21,12:01～13:00,0.0603,0.0502,0.0554,
江戸川 (Edogawa),2017-10-21,11:01～12:00,0.0588,0.0509,0.0553,
江戸川 (Edogawa),2017-10-21,10:01～11:00,0.0624,0.0547,0.0587,
江戸川 (Edogawa),2017-10-21,09:01～10:00,0.0647,0.0572,0.0603,
江戸川 (Edogawa),2017-10-21,08:01～09:00,0.0595,0.0515,0.0563,
江戸川 (Edogawa),2017-10-21,07:01～08:00,0.0599,0.0519,0.0560,
江戸川 (Edogawa),2017-10-21,06:01～07:00,0.0580,0.0507,0.0550,
江戸川 (Edogawa),2017-10-21,05:01～06:00,0.0600,0.0533,0.0562,
江戸川 (Edogawa),2017-10-21,04:01～05:00,0.0583,0.0495,0.0537,
江戸川 (Edogawa),2017-10-21,03:01～04:00,0.0563,0.0478,0.0520,
江戸川 (Edogawa),2017-10-21,02:01～03:00,0.0593,0.0505,0.0546,
江戸川 (Edogawa),2017-10-21,01:01～02:00,0.0656,0.0558,0.0611,
江戸川 (Edogawa),2017-10-21,00:01～01:00,0.0653,0.0551,0.0603,
江戸川 (Edogawa),2017-10-20,23:01～24:00,0.0638,0.0529,0.0574,
江戸川 (Edogawa),2017-10-20,22:01～23:00,0.0584,0.0496,0.0547,
江戸川 (Edogawa),2017-10-20,21:01～22:00,0.0607,0.0530,0.0563,
江戸川 (Edogawa),2017-10-20,20:01～21:00,0.0613,0.0536,0.0567,
江戸川 (Edogawa),2017-10-20,19:01～20:00,0.0618,0.0526,0.0569,
江戸川 (Edogawa),2017-10-20,18:01～19:00,0.0582,0.0497,0.0534,
江戸川 (Edogawa),2017-10-20,17:01～18:00,0.0550,0.0479,0.0514,
江戸川 (Edogawa),2017-10-20,16:01～17:00,0.0539,0.0476,0.0505,
江戸川 (Edogawa),2017-10-20,15:01～16:00,0.0530,0.0473,0.0505,
江戸川 (Edogawa),2017-10-20,14:01～15:00,0.0533,0.0472,0.0502,
江戸川 (Edogawa),2017-10-20,13:01～14:00,0.0538,0.0469,0.0502,
江戸川 (Edogawa),2017-10-20,12:01～13:00,0.0531,0.0476,0.0503,
江戸川 (Edogawa),2017-10-20,11:01～12:00,0.0546,0.0473,0.0515,
江戸川 (Edogawa),2017-10-20,10:01～11:00,0.0566,0.0497,0.0539,
江戸川 (Edogawa),2017-10-20,09:01～10:00,0.0571,0.0487,0.0532,
江戸川 (Edogawa),2017-10-20,08:01～09:00,0.0632,0.0522,0.0579,
江戸川 (Edogawa),2017-10-20,07:01～08:00,0.0659,0.0586,0.0618,
江戸川 (Edogawa),2017-10-20,06:01～07:00,0.0651,0.0561,0.0602,
江戸川 (Edogawa),2017-10-20,05:01～06:00,0.0625,0.0530,0.0589,
江戸川 (Edogawa),2017-10-20,04:01～05:00,0.0647,0.0558,0.0604,
江戸川 (Edogawa),2017-10-20,03:01～04:00,0.0652,0.0537,0.0590,
江戸川 (Edogawa),2017-10-20,02:01～03:00,0.0606,0.0539,0.0572,
江戸川 (Edogawa),2017-10-20,01:01～02:00,0.0589,0.0486,0.0540,
江戸川 (Edogawa),2017-10-20,00:01～01:00,0.0536,0.0475,0.0508,
江戸川 (Edogawa),2017-10-19,23:01～24:00,0.0567,0.0490,0.0523,
江戸川 (Edogawa),2017-10-19,22:01～23:00,0.0620,0.0527,0.0564,
江戸川 (Edogawa),2017-10-19,21:01～22:00,0.0646,0.0573,0.0601,
江戸川 (Edogawa),2017-10-19,20:01～21:00,0.0646,0.0540,0.0604,
江戸川 (Edogawa),2017-10-19,19:01～20:00,0.0642,0.0576,0.0606,
江戸川 (Edogawa),2017-10-19,18:01～19:00,0.0625,0.0541,0.0573,
江戸川 (Edogawa),2017-10-19,17:01～18:00,0.0680,0.0602,0.0633,
江戸川 (Edogawa),2017-10-19,16:01～17:00,0.0709,0.0612,0.0657,
江戸川 (Edogawa),2017-10-19,15:01～16:00,0.0722,0.0640,0.0673,
江戸川 (Edogawa),2017-10-19,14:01～15:00,0.0698,0.0590,0.0649,
江戸川 (Edogawa),2017-10-19,13:01～14:00,0.0681,0.0566,0.0638,
江戸川 (Edogawa),2017-10-19,12:01～13:00,0.0716,0.0532,0.0613,
江戸川 (Edogawa),2017-10-19,11:01～12:00,0.0626,0.0530,0.0576,
江戸川 (Edogawa),2017-10-19,10:01～11:00,0.0633,0.0555,0.0596,
江戸川 (Edogawa),2017-10-19,09:01～10:00,0.0642,0.0556,0.0589,
江戸川 (Edogawa),2017-10-19,08:01～09:00,0.0612,0.0542,0.0575,
江戸川 (Edogawa),2017-10-19,07:01～08:00,0.0595,0.0516,0.0552,
江戸川 (Edogawa),2017-10-19,06:01～07:00,0.0590,0.0502,0.0549,
江戸川 (Edogawa),2017-10-19,05:01～06:00,0.0594,0.0522,0.0555,
江戸川 (Edogawa),2017-10-19,04:01～05:00,0.0597,0.0530,0.0558,
江戸川 (Edogawa),2017-10-19,03:01～04:00,0.0598,0.0512,0.0560,
江戸川 (Edogawa),2017-10-19,02:01～03:00,0.0596,0.0526,0.0559,
江戸川 (Edogawa),2017-10-19,01:01～02:00,0.0572,0.0507,0.0542,
江戸川 (Edogawa),2017-10-19,00:01～01:00,0.0561,0.0502,0.0525,
江戸川 (Edogawa),2017-10-18,23:01～24:00,0.0551,0.0485,0.0517,
江戸川 (Edogawa),2017-10-18,22:01～23:00,0.0553,0.0485,0.0509,
江戸川 (Edogawa),2017-10-18,21:01～22:00,0.0540,0.0479,0.0503,
江戸川 (Edogawa),2017-10-18,20:01～21:00,0.0540,0.0476,0.0504,
江戸川 (Edogawa),2017-10-18,19:01～20:00,0.0534,0.0475,0.0504,
江戸川 (Edogawa),2017-10-18,18:01～19:00,0.0547,0.0464,0.0506,
江戸川 (Edogawa),2017-10-18,17:01～18:00,0.0542,0.0469,0.0504,
江戸川 (Edogawa),2017-10-18,16:01～17:00,0.0544,0.0468,0.0504,
江戸川 (Edogawa),2017-10-18,15:01～16:00,0.0534,0.0476,0.0507,
江戸川 (Edogawa),2017-10-18,14:01～15:00,0.0540,0.0469,0.0511,
江戸川 (Edogawa),2017-10-18,13:01～14:00,0.0547,0.0479,0.0512,
江戸川 (Edogawa),2017-10-18,12:01～13:00,0.0539,0.0462,0.0509,
江戸川 (Edogawa),2017-10-18,11:01～12:00,0.0540,0.0473,0.0509,
江戸川 (Edogawa),2017-10-18,10:01～11:00,0.0560,0.0484,0.0515,
江戸川 (Edogawa),2017-10-18,09:01～10:00,0.0556,0.0474,0.0511,
江戸川 (Edogawa),2017-10-18,08:01～09:00,0.0540,0.0477,0.0509,
江戸川 (Edogawa),2017-10-18,07:01～08:00,0.0537,0.0480,0.0506,
江戸川 (Edogawa),2017-10-18,06:01～07:00,0.0558,0.0481,0.0510,
江戸川 (Edogawa),2017-10-18,05:01～06:00,0.0544,0.0465,0.0506,
江戸川 (Edogawa),2017-10-18,04:01～05:00,0.0531,0.0470,0.0503,
江戸川 (Edogawa),2017-10-18,03:01～04:00,0.0536,0.0463,0.0502,
江戸川 (Edogawa),2017-10-18,02:01～03:00,0.0539,0.0465,0.0503,
江戸川 (Edogawa),2017-10-18,01:01～02:00,0.0526,0.0467,0.0500,
江戸川 (Edogawa),2017-10-18,00:01～01:00,0.0534,0.0460,0.0498,
江戸川 (Edogawa),2017-10-17,23:01～24:00,0.0534,0.0478,0.0502,
江戸川 (Edogawa),2017-10-17,22:01～23:00,0.0544,0.0476,0.0501,
江戸川 (Edogawa),2017-10-17,21:01～22:00,0.0529,0.0471,0.0500,
江戸川 (Edogawa),2017-10-17,20:01～21:00,0.0532,0.0459,0.0495,
江戸川 (Edogawa),2017-10-17,19:01～20:00,0.0529,0.0472,0.0497,
江戸川 (Edogawa),2017-10-17,18:01～19:00,0.0542,0.0479,0.0504,
江戸川 (Edogawa),2017-10-17,17:01～18:00,0.0536,0.0468,0.0502,
江戸川 (Edogawa),2017-10-17,16:01～17:00,0.0544,0.0460,0.0502,
江戸川 (Edogawa),2017-10-17,15:01～16:00,0.0528,0.0470,0.0501,
江戸川 (Edogawa),2017-10-17,14:01～15:00,0.0531,0.0469,0.0504,
江戸川 (Edogawa),2017-10-17,13:01～14:00,0.0551,0.0472,0.0512,
江戸川 (Edogawa),2017-10-17,12:01～13:00,0.0580,0.0502,0.0537,
江戸川 (Edogawa),2017-10-17,11:01～12:00,0.0594,0.0516,0.0553,
江戸川 (Edogawa),2017-10-17,10:01～11:00,0.0578,0.0510,0.0546,
江戸川 (Edogawa),2017-10-17,09:01～10:00,0.0573,0.0508,0.0540,
江戸川 (Edogawa),2017-10-17,08:01～09:00,0.0587,0.0510,0.0549,
江戸川 (Edogawa),2017-10-17,07:01～08:00,0.0583,0.0495,0.0549,
江戸川 (Edogawa),2017-10-17,06:01～07:00,0.0588,0.0526,0.0559,
江戸川 (Edogawa),2017-10-17,05:01～06:00,0.0610,0.0508,0.0551,
江戸川 (Edogawa),2017-10-17,04:01～05:00,0.0569,0.0493,0.0530,
江戸川 (Edogawa),2017-10-17,03:01～04:00,0.0616,0.0521,0.0572,
江戸川 (Edogawa),2017-10-17,02:01～03:00,0.0625,0.0525,0.0561,
江戸川 (Edogawa),2017-10-17,01:01～02:00,0.0592,0.0519,0.0558,
江戸川 (Edogawa),2017-10-17,00:01～01:00,0.0596,0.0516,0.0551,
江戸川 (Edogawa),2017-10-16,23:01～24:00,0.0580,0.0515,0.0545,
江戸川 (Edogawa),2017-10-16,22:01～23:00,0.0584,0.0508,0.0550,
江戸川 (Edogawa),2017-10-16,21:01～22:00,0.0586,0.0518,0.0547,
江戸川 (Edogawa),2017-10-16,20:01～21:00,0.0580,0.0499,0.0547,
江戸川 (Edogawa),2017-10-16,19:01～20:00,0.0639,0.0524,0.0580,
江戸川 (Edogawa),2017-10-16,18:01～19:00,0.0710,0.0584,0.0649,
江戸川 (Edogawa),2017-10-16,17:01～18:00,0.0715,0.0624,0.0675,
江戸川 (Edogawa),2017-10-16,16:01～17:00,0.0720,0.0645,0.0684,
江戸川 (Edogawa),2017-10-16,15:01～16:00,0.0704,0.0613,0.0668,
江戸川 (Edogawa),2017-10-16,14:01～15:00,0.0759,0.0659,0.0702,
江戸川 (Edogawa),2017-10-16,13:01～14:00,0.0783,0.0672,0.0710,
江戸川 (Edogawa),2017-10-16,12:01～13:00,0.0734,0.0557,0.0651,
江戸川 (Edogawa),2017-10-16,11:01～12:00,0.0633,0.0541,0.0589,
江戸川 (Edogawa),2017-10-16,10:01～11:00,0.0618,0.0543,0.0573,
江戸川 (Edogawa),2017-10-16,09:01～10:00,0.0630,0.0544,0.0593,
江戸川 (Edogawa),2017-10-16,08:01～09:00,0.0640,0.0534,0.0590,
江戸川 (Edogawa),2017-10-16,07:01～08:00,0.0630,0.0559,0.0591,
江戸川 (Edogawa),2017-10-16,06:01～07:00,0.0647,0.0570,0.0612,
江戸川 (Edogawa),2017-10-16,05:01～06:00,0.0642,0.0580,0.0613,
江戸川 (Edogawa),2017-10-16,04:01～05:00,0.0659,0.0551,0.0601,
江戸川 (Edogawa),2017-10-16,03:01～04:00,0.0619,0.0552,0.0587,
江戸川 (Edogawa),2017-10-16,02:01～03:00,0.0652,0.0578,0.0611,
江戸川 (Edogawa),2017-10-16,01:01～02:00,0.0657,0.0556,0.0608,
江戸川 (Edogawa),2017-10-16,00:01～01:00,0.0598,0.0525,0.0564,
